Tracking 30918 objects as of 2-Jul-2025
HD Live streaming from Space Station
objects crossing your sky now

IRIDIUM 33 DEB

Track IRIDIUM 33 DEB now!
10-day predictions


NORAD ID: 35618
Int'l Code: 1997-051QQ
Perigee: 708.9 km
Apogee: 747.2 km
Inclination: 86.3 °
Period: 99.2 minutes
Semi major axis: 7099 km
RCS: 0.0121 m2 (small)
Launch date: September 14, 1997
Source: United States (US)
Launch site: TYURATAM MISSILE AND SPACE COMPLEX (TTMTR)

Note: This is SATELLITE DEBRIS
Your satellite tracking list
FLOCK 3R 3
Track 1 satellite(s)




NASA's NSSDC Master Catalog

Two Line Element Set (TLE):
1 35618U 97051QQ  25172.45497399  .00001090  00000-0  26670-3 0  9996
2 35618  86.3394  69.6393 0026981 240.1672 119.6851 14.51461596628652
Source of the keplerian elements: AFSPC